Weather Roundup
Issued by NWS

Home | Current Version | Previous Version | Text Only | Print | Product List | Glossary On
Versions: 1 2 3 4 5 6 7 8 9 10 11 12 13 14 15 16 17 18 19 20 21 22 23 24 25 26 27 28 29 30 31 32 33 34 35 36 37 38 39 40 41 42 43 44 45 46 47 48 49 50
000
NZUS93 KARX 170659
HRRWXR

CURRENT HOURLY OBSERVATIONS ACROSS
MUCH OF THE UPPER MISSISSIPPI VALLEY
NATIONAL WEATHER SERVICE LA CROSSE WI
100 AM CST WED JAN 17 2018


...SOUTHEAST MINNESOTA...


CITY           SKY/WX    TMP DP  RH WIND       PRES   REMARKS
ROCHESTER      FAIR      -2  -5  87 SW9       30.47F WCI -18
ROCHESTER/MAYO FAIR      -1  -4  85 S3        30.48F
WINONA         FAIR      -2  -8  78 CALM      30.54F
AUSTIN         NOT AVBL
ALBERT LEA     FAIR      -2  -8  78 CALM      30.50F
DODGE CENTER   FAIR      -6  -9  84 SW6       30.45F WCI -18
PRESTON        FAIR      -4  -8  82 SW5       30.50S WCI -15
OWATONNA       FAIR      -2  -6  84 SW10      30.48F WCI -19
FARIBAULT      FAIR      -6  -9  84 SW3       30.50F
$$

...ELSEWHERE IN MINNESOTA...


CITY           SKY/WX    TMP DP  RH WIND       PRES   REMARKS
MINNEAPOLIS    FAIR      -1  -4  87 SW6       30.49F WCI -13
INTNL FALLS    FAIR       7  -5  57 SW14G21   30.14F WCI -10
DULUTH         FAIR       5  -3  69 W17       30.25F WCI -14
RED WING       FAIR      -8 -15  71 CALM      30.51F
REDWOOD FALLS  CLOUDY     1  -4  79 SW9       30.47F WCI -14
MANKATO        FAIR      -3  -6  87 SW6       30.51F WCI -15
WORTHINGTON    CLOUDY     1  -4  79 SW12      30.45F WCI -16
FAIRMONT       CLOUDY     0  -4  83 SW9       30.51F WCI -15
$$

...SOUTHWEST WISCONSIN...


CITY           SKY/WX    TMP DP  RH WIND       PRES   REMARKS
LA CROSSE      NOT AVBL
PRAIRIE DU CHI FAIR      -2  -7  79 NW5       30.59S WCI -12
BOSCOBEL       FAIR      -1  -5  82 SW6       30.57F FOG     WCI -13
LONE ROCK      NOT AVBL
PLATTEVILLE    FAIR      -1  -3  90 W8        30.54S WCI -15
FORT MC COY    FAIR       0  -3  87 SW5       30.53F WCI -10
CAMP DOUGLAS   FAIR       0  -4  86 W3        30.49F
MAUSTON-NEW LI FAIR      -4  -7  86 CALM      30.49F
VIROQUA        FAIR      -4  -6  91 SW9       30.48F WCI -20
WIS DELLS      FAIR       2  -2  85 CALM      30.49F
$$

...ELSEWHERE IN WISCONSIN...


CITY           SKY/WX    TMP DP  RH WIND       PRES   REMARKS
MILWAUKEE      FAIR      13   8  81 W6        30.49F WCI   4
MADISON        FAIR       4   1  88 CALM      30.50F
GREEN BAY      FAIR       9   4  80 SW7       30.44S WCI  -2
EAU CLAIRE     NOT AVBL
BLACK RVR FLS  FAIR      -4 -10  79 CALM      30.51S
MEDFORD        FAIR      -3  -6  87 W8        30.40F WCI -18
WAUSAU         FAIR      -1  -4  87 W7        30.38F WCI -14
WIS RAPIDS     FAIR       1  -4  79 W6        30.47F WCI -10
MARSHFIELD     FAIR      -2  -5  87 W8        30.42F WCI -17
RICE LAKE      FAIR      -1  -5  82 CALM      30.46F
$$

...NORTHEAST IOWA...


CITY           SKY/WX    TMP DP  RH WIND       PRES   REMARKS
WATERLOO       FAIR      -4  -8  83 W3        30.58F
DUBUQUE        FAIR      -3  -7  82 W6        30.54S WCI -15
DECORAH        FAIR      -2  -6  84 W7        30.52S WCI -16
MASON CITY     CLOUDY     0  -5  79 W10       30.54F WCI -16
CHARLES CITY   FAIR      -4  -8  84 SW5       30.54F WCI -15
OELWEIN        FAIR      -4  -6  92 W6        30.56F WCI -16
$$

...ELSEWHERE IN IOWA...


CITY           SKY/WX    TMP DP  RH WIND       PRES   REMARKS
DES MOINES     CLOUDY    -1  -6  79 SW5       30.62F WCI -11
IOWA CITY      FAIR       0  -6  76 W5        30.64F WCI -10
FORT DODGE     CLOUDY    -6  -9  86 S7        30.56F WCI -20
MARSHALLTOWN   CLOUDY    -5  -8  87 SW7       30.58F WCI -19
CEDAR RAPIDS   FAIR      -2  -7  79 NW6       30.59S WCI -14
$$

...NORTHERN ILLINOIS...


CITY           SKY/WX    TMP DP  RH WIND       PRES   REMARKS
CHICAGO-OHARE  FAIR      12   7  80 W8        30.51S WCI   0
CHICAGO-MIDWAY FAIR      13   8  81 W7        30.52S WCI   3
MOLINE         FAIR       2  -2  83 W8        30.61F WCI -12
ROCKFORD       FAIR       4   0  83 CALM      30.56S
PEORIA         FAIR       2  -2  83 W3        30.61F
$$

NOTE: "FAIR" INDICATES FEW OR NO CLOUDS BELOW 12,000 FEET WITH NO
SIGNIFICANT WEATHER AND/OR OBSTRUCTIONS TO VISIBILITY. WIND
SPEEDS ARE IN MILES-PER-HOUR.




USA.gov is the U.S. government's official web portal to all federal, state and local government web resources and services.